This is the latest recevied weather packets stored in our database for station/object W6MAF. If no packets are shown the sender has not sent any weather packets the latest 10 day(s).
| Time | Temp. | Humidity | Pressure | Rain* | Wind** | Luminosity | Snow |
|---|---|---|---|---|---|---|---|
| 1787858409 | 36.67° C | 2% | - | 0 mm | 0.89 m/s, 349° | - | - |
| 1787858111 | 36.11° C | 3% | - | 0 mm | 1.34 m/s, 322° | - | - |
| 1787857813 | 36.11° C | 3% | - | 0 mm | 1.79 m/s, 249° | - | - |
| 1787857515 | 35.56° C | 4% | - | 0 mm | 0 m/s | - | - |
| 1787857214 | 35.56° C | 4% | - | 0 mm | 0 m/s | - | - |
| 1787856916 | 35° C | 4% | - | 0 mm | 2.68 m/s, 305° | - | - |
| 1787856619 | 35° C | 5% | - | 0 mm | 3.58 m/s, 271° | - | - |
| 1787856321 | 35° C | 4% | - | 0 mm | 2.24 m/s, 243° | - | - |
| 1787856023 | 35° C | 4% | - | 0 mm | 2.68 m/s, 240° | - | - |
| 1787855725 | 35° C | 4% | - | 0 mm | 4.02 m/s, 219° | - | - |
| 1787855424 | 35° C | 4% | - | 0 mm | 1.79 m/s, 243° | - | - |
| 1787855127 | 35° C | 4% | - | 0 mm | 2.68 m/s, 240° | - | - |
| 1787854829 | 35° C | 4% | - | 0 mm | 3.58 m/s, 238° | - | - |
| 1787854531 | 35.56° C | 4% | - | 0 mm | 2.68 m/s, 226° | - | - |
| 1787854233 | 35.56° C | 4% | - | 0 mm | 2.24 m/s, 243° | - | - |
| 1787853936 | 36.11° C | 4% | - | 0 mm | 2.24 m/s, 245° | - | - |
| 1787853635 | 36.11° C | 4% | - | 0 mm | 2.24 m/s, 246° | - | - |
| 1787853337 | 35.56° C | 4% | - | 0 mm | 2.24 m/s, 248° | - | - |
| 1787853039 | 35.56° C | 4% | - | 0 mm | 3.13 m/s, 232° | - | - |
| 1787852741 | 35.56° C | 4% | - | 0 mm | 3.58 m/s, 232° | - | - |
| 1787852443 | 35.56° C | 4% | - | 0 mm | 2.24 m/s, 197° | - | - |
| 1787852146 | 35.56° C | 4% | - | 0 mm | 0.89 m/s, 169° | - | - |
| 1787851845 | 35° C | 4% | - | 0 mm | 0.89 m/s, 201° | - | - |
| 1787851547 | 34.44° C | 4% | - | 0 mm | 1.34 m/s, 238° | - | - |
| 1787851249 | 34.44° C | 4% | - | 0 mm | 2.24 m/s, 246° | - | - |
* Rain latest hour (hover to see other rain measurements)
** Current wind speed in m/s (hover to see current wind gust speed)